time, Switch, Flow(0), Analog(2)
yyyy/mm/dd HH:MM:SS.fff, True=FILTERED|False=TOTAL, L/min, V
2023/06/06 23:00:05.167, True, 3.318, 0.131075
2023/06/06 23:00:05.671, True, 3.314, 0.131533
2023/06/06 23:00:06.168, True, 3.033, 0.132753
2023/06/06 23:00:06.672, True, 3.316, 0.132982
2023/06/06 23:00:07.176, True, 3.647, 0.133364
2023/06/06 23:00:07.679, True, 3.317, 0.131456
2023/06/06 23:00:08.175, True, 3.714, 0.133211
2023/06/06 23:00:08.679, True, 3.308, 0.130617
2023/06/06 23:00:09.176, True, 3.370, 0.134737
2023/06/06 23:00:09.680, True, 3.316, 0.132219
2023/06/06 23:00:10.183, True, 3.316, 0.132296
2023/06/06 23:00:10.680, True, 3.369, 0.130617
2023/06/06 23:00:11.184, True, 2.984, 0.134051
2023/06/06 23:00:11.688, True, 3.316, 0.129854
2023/06/06 23:00:12.184, True, 3.369, 0.133745
2023/06/06 23:00:12.688, True, 3.317, 0.135958
2023/06/06 23:00:13.192, True, 3.314, 0.135042
2023/06/06 23:00:13.687, True, 3.372, 0.134279
2023/06/06 23:00:14.192, True, 3.645, 0.133974
2023/06/06 23:00:14.695, True, 3.322, 0.133288
2023/06/06 23:00:15.192, True, 3.027, 0.131456
2023/06/06 23:00:15.696, True, 3.317, 0.132982
2023/06/06 23:00:16.199, True, 3.647, 0.131991
2023/06/06 23:00:16.696, True, 3.370, 0.130846
2023/06/06 23:00:17.199, True, 3.314, 0.131456
2023/06/06 23:00:17.703, True, 3.320, 0.130388
2023/06/06 23:00:18.208, True, 3.312, 0.131533
2023/06/06 23:00:18.704, True, 3.369, 0.132219
2023/06/06 23:00:19.207, True, 3.316, 0.133440
2023/06/06 23:00:19.704, True, 3.370, 0.133135
2023/06/06 23:00:20.208, True, 3.316, 0.133440
2023/06/06 23:00:20.711, True, 2.989, 0.132677
2023/06/06 23:00:21.208, True, 3.363, 0.133516
2023/06/06 23:00:21.712, True, 3.316, 0.135348
2023/06/06 23:00:22.216, True, 3.318, 0.133898
2023/06/06 23:00:22.720, True, 2.983, 0.133135
2023/06/06 23:00:23.216, True, 3.369, 0.134585
2023/06/06 23:00:23.720, True, 3.316, 0.134966
2023/06/06 23:00:24.224, True, 3.316, 0.135729
2023/06/06 23:00:24.720, True, 3.370, 0.136721
2023/06/06 23:00:25.224, True, 3.316, 0.137102
2023/06/06 23:00:25.728, True, 3.649, 0.137179
2023/06/06 23:00:26.224, True, 3.370, 0.135958
2023/06/06 23:00:26.727, True, 3.315, 0.139162
2023/06/06 23:00:27.232, True, 3.316, 0.135729
2023/06/06 23:00:27.728, True, 3.369, 0.138247
2023/06/06 23:00:28.232, True, 3.316, 0.136950
2023/06/06 23:00:28.736, True, 3.317, 0.136263
2023/06/06 23:00:29.231, True, 3.372, 0.138705
2023/06/06 23:00:29.736, True, 3.313, 0.138323
2023/06/06 23:00:30.240, True, 2.984, 0.136263
2023/06/06 23:00:30.735, True, 3.370, 0.138552
2023/06/06 23:00:31.239, True, 3.653, 0.137179
2023/06/06 23:00:31.744, True, 3.310, 0.137636
2023/06/06 23:00:32.239, True, 3.369, 0.138476
2023/06/06 23:00:32.744, True, 3.317, 0.138705
2023/06/06 23:00:33.248, True, 3.315, 0.136873
2023/06/06 23:00:33.743, True, 3.033, 0.140154
2023/06/06 23:00:34.248, True, 3.320, 0.140002
2023/06/06 23:00:34.752, True, 3.311, 0.140459
2023/06/06 23:00:35.248, True, 3.376, 0.138399
2023/06/06 23:00:35.752, True, 3.311, 0.139239
2023/06/06 23:00:36.256, True, 3.315, 0.139773
2023/06/06 23:00:36.751, True, 3.370, 0.140536
2023/06/06 23:00:37.256, True, 2.985, 0.139391
2023/06/06 23:00:37.759, True, 3.315, 0.141451
2023/06/06 23:00:38.263, True, 3.320, 0.139467
2023/06/06 23:00:38.760, True, 3.367, 0.140764
2023/06/06 23:00:39.263, True, 3.313, 0.140764
2023/06/06 23:00:39.767, True, 3.317, 0.139696
2023/06/06 23:00:40.264, True, 3.371, 0.141604
2023/06/06 23:00:40.767, True, 3.314, 0.139086
2023/06/06 23:00:41.272, True, 3.319, 0.140459
2023/06/06 23:00:41.768, True, 3.032, 0.139696
2023/06/06 23:00:42.271, True, 3.319, 0.138247
2023/06/06 23:00:42.776, True, 3.313, 0.137484
2023/06/06 23:00:43.271, True, 3.370, 0.137407
2023/06/06 23:00:43.775, True, 3.313, 0.139010
2023/06/06 23:00:44.280, True, 3.319, 0.140688
2023/06/06 23:00:44.776, True, 3.367, 0.138476
2023/06/06 23:00:45.279, True, 3.322, 0.138018
2023/06/06 23:00:45.784, True, 3.313, 0.138247
2023/06/06 23:00:46.280, True, 3.369, 0.139086
2023/06/06 23:00:46.783, True, 3.312, 0.137255
2023/06/06 23:00:47.288, True, 3.322, 0.140307
2023/06/06 23:00:47.784, True, 3.032, 0.139467
2023/06/06 23:00:48.287, True, 3.311, 0.138018
2023/06/06 23:00:48.791, True, 3.316, 0.139086
2023/06/06 23:00:49.288, True, 3.376, 0.138094
2023/06/06 23:00:49.792, True, 3.310, 0.138247
2023/06/06 23:00:50.295, True, 3.319, 0.137331
2023/06/06 23:00:50.792, True, 3.368, 0.139391
2023/06/06 23:00:51.295, True, 3.315, 0.138018
2023/06/06 23:00:51.800, True, 2.985, 0.138781
2023/06/06 23:00:52.296, True, 3.369, 0.139849
2023/06/06 23:00:52.799, True, 3.315, 0.136339
2023/06/06 23:00:53.295, True, 3.369, 0.138247
2023/06/06 23:00:53.800, True, 3.323, 0.137407
2023/06/06 23:00:54.296, True, 3.028, 0.140764
2023/06/06 23:00:54.799, True, 3.314, 0.140307
2023/06/06 23:00:55.303, True, 3.319, 0.139467
2023/06/06 23:00:55.807, True, 3.313, 0.139086
2023/06/06 23:00:56.304, True, 3.369, 0.139620
2023/06/06 23:00:56.808, True, 3.318, 0.137789
2023/06/06 23:00:57.304, True, 3.368, 0.138857
2023/06/06 23:00:57.807, True, 3.316, 0.138018
2023/06/06 23:00:58.312, True, 3.318, 0.139773
2023/06/06 23:00:58.816, True, 2.985, 0.138628
2023/06/06 23:00:59.311, True, 3.367, 0.137560
2023/06/06 23:00:59.816, True, 3.316, 0.136416
2023/06/06 23:01:00.319, True, 3.315, 0.136492
2023/06/06 23:01:00.815, True, 3.370, 0.138094
2023/06/06 23:01:01.319, True, 3.316, 0.139696
2023/06/06 23:01:01.822, True, 3.322, 0.138476
2023/06/06 23:01:02.319, True, 3.363, 0.138857
2023/06/06 23:01:02.823, True, 3.316, 0.137179
2023/06/06 23:01:03.327, True, 2.988, 0.137026
2023/06/06 23:01:03.823, True, 3.367, 0.138323
2023/06/06 23:01:04.328, True, 3.316, 0.136645
2023/06/06 23:01:04.831, True, 3.315, 0.136339
2023/06/06 23:01:05.327, True, 3.370, 0.137789
2023/06/06 23:01:05.831, True, 3.316, 0.136645
2023/06/06 23:01:06.328, True, 3.375, 0.138323
2023/06/06 23:01:06.831, True, 3.311, 0.138705
2023/06/06 23:01:07.336, True, 3.322, 0.136873
2023/06/06 23:01:07.832, True, 3.369, 0.139010
2023/06/06 23:01:08.335, True, 3.310, 0.137636
2023/06/06 23:01:08.839, True, 3.316, 0.137484
2023/06/06 23:01:09.335, True, 3.370, 0.137789
2023/06/06 23:01:09.839, True, 3.319, 0.138323
2023/06/06 23:01:10.342, True, 3.644, 0.137179
2023/06/06 23:01:10.839, True, 3.369, 0.138094
2023/06/06 23:01:11.343, True, 2.984, 0.137255
2023/06/06 23:01:11.848, True, 3.323, 0.137789
2023/06/06 23:01:12.342, True, 3.370, 0.139086
2023/06/06 23:01:12.847, True, 2.982, 0.141146
2023/06/06 23:01:13.351, True, 3.317, 0.137636
2023/06/06 23:01:13.847, True, 3.367, 0.136416
2023/06/06 23:01:14.351, True, 3.314, 0.138552
2023/06/06 23:01:14.855, True, 3.318, 0.136568
2023/06/06 23:01:15.351, True, 3.370, 0.136339
2023/06/06 23:01:15.855, True, 3.316, 0.135882
2023/06/06 23:01:16.351, True, 3.367, 0.137407
2023/06/06 23:01:16.855, True, 3.319, 0.135653
2023/06/06 23:01:17.359, True, 2.983, 0.137102
2023/06/06 23:01:17.863, True, 3.318, 0.137484
2023/06/06 23:01:18.359, True, 3.368, 0.138323
2023/06/06 23:01:18.864, True, 3.317, 0.135653
2023/06/06 23:01:19.359, True, 3.033, 0.137179
2023/06/06 23:01:19.864, True, 3.313, 0.137484
2023/06/06 23:01:20.367, True, 3.320, 0.136034
2023/06/06 23:01:20.863, True, 3.370, 0.137942
2023/06/06 23:01:21.368, True, 3.317, 0.138399
2023/06/06 23:01:21.872, True, 3.311, 0.137713
2023/06/06 23:01:22.375, True, 3.320, 0.136568
2023/06/06 23:01:22.871, True, 3.369, 0.136110
2023/06/06 23:01:23.376, True, 3.312, 0.137179
2023/06/06 23:01:23.879, True, 3.316, 0.136873
2023/06/06 23:01:24.376, True, 3.032, 0.134585
2023/06/06 23:01:24.880, True, 3.317, 0.135424
2023/06/06 23:01:25.384, True, 3.318, 0.137560
2023/06/06 23:01:25.879, True, 3.370, 0.138170
2023/06/06 23:01:26.383, True, 3.318, 0.136645
2023/06/06 23:01:26.887, True, 3.311, 0.137102
2023/06/06 23:01:27.383, True, 3.032, 0.135195
2023/06/06 23:01:27.887, True, 3.316, 0.137942
2023/06/06 23:01:28.384, True, 3.370, 0.136873
2023/06/06 23:01:28.888, True, 3.650, 0.136492
2023/06/06 23:01:29.391, True, 3.313, 0.135882
2023/06/06 23:01:29.896, True, 3.316, 0.137942
2023/06/06 23:01:30.391, True, 3.369, 0.136492
2023/06/06 23:01:30.896, True, 3.317, 0.135958
2023/06/06 23:01:31.399, True, 2.984, 0.135653
2023/06/06 23:01:31.896, True, 3.369, 0.134508
2023/06/06 23:01:32.399, True, 3.316, 0.135271
2023/06/06 23:01:32.903, True, 3.321, 0.137484
2023/06/06 23:01:33.399, True, 3.364, 0.138933
2023/06/06 23:01:33.903, True, 3.315, 0.134890
2023/06/06 23:01:34.400, True, 3.033, 0.137179
2023/06/06 23:01:34.903, True, 3.316, 0.137407
2023/06/06 23:01:35.407, True, 3.316, 0.135119
2023/06/06 23:01:35.911, True, 3.316, 0.137179
2023/06/06 23:01:36.407, True, 3.372, 0.136034
2023/06/06 23:01:36.911, True, 3.314, 0.136645
2023/06/06 23:01:37.415, True, 3.316, 0.136416
2023/06/06 23:01:37.911, True, 3.369, 0.136416
2023/06/06 23:01:38.415, True, 3.316, 0.134737
2023/06/06 23:01:38.912, True, 3.369, 0.135882
2023/06/06 23:01:39.415, True, 2.985, 0.135882
2023/06/06 23:01:39.919, True, 3.315, 0.136187
2023/06/06 23:01:40.415, True, 3.369, 0.136416
2023/06/06 23:01:40.919, True, 3.323, 0.136416
2023/06/06 23:01:41.423, True, 3.309, 0.136721
2023/06/06 23:01:41.927, True, 3.316, 0.136034
2023/06/06 23:01:42.423, True, 3.370, 0.137407
2023/06/06 23:01:42.927, True, 3.315, 0.136339
2023/06/06 23:01:43.431, True, 2.984, 0.135348
2023/06/06 23:01:43.927, True, 3.370, 0.136873
2023/06/06 23:01:44.431, True, 3.316, 0.134737
2023/06/06 23:01:44.927, True, 3.370, 0.135958
2023/06/06 23:01:45.431, True, 3.316, 0.137255
2023/06/06 23:01:45.935, True, 3.648, 0.135805
2023/06/06 23:01:46.431, True, 3.033, 0.134051
2023/06/06 23:01:46.935, True, 3.318, 0.135653
2023/06/06 23:01:47.439, True, 3.314, 0.135424
2023/06/06 23:01:47.935, True, 3.370, 0.135805
2023/06/06 23:01:48.439, True, 3.316, 0.136492
2023/06/06 23:01:48.943, True, 3.316, 0.136339
2023/06/06 23:01:49.439, True, 3.369, 0.134279
2023/06/06 23:01:49.943, True, 2.984, 0.135805
2023/06/06 23:01:50.447, True, 3.318, 0.134279
2023/06/06 23:01:50.943, True, 3.368, 0.135500
2023/06/06 23:01:51.447, True, 3.316, 0.136110
2023/06/06 23:01:51.943, True, 3.370, 0.134127
2023/06/06 23:01:52.447, True, 3.646, 0.135348
2023/06/06 23:01:52.951, True, 3.316, 0.137713
2023/06/06 23:01:53.447, True, 3.369, 0.136034
2023/06/06 23:01:53.952, True, 3.316, 0.132830
2023/06/06 23:01:54.455, True, 3.316, 0.135500
2023/06/06 23:01:54.951, True, 3.369, 0.135042
2023/06/06 23:01:55.455, True, 3.315, 0.137407
2023/06/06 23:01:55.959, True, 2.985, 0.135576
2023/06/06 23:01:56.455, True, 3.370, 0.134203
2023/06/06 23:01:56.959, True, 3.316, 0.138170
2023/06/06 23:01:57.463, True, 3.315, 0.135805
2023/06/06 23:01:57.959, True, 3.370, 0.135119
2023/06/06 23:01:58.463, True, 3.316, 0.134966
2023/06/06 23:01:58.967, True, 3.648, 0.137484
2023/06/06 23:01:59.463, True, 3.370, 0.134508
2023/06/06 23:01:59.967, True, 3.316, 0.133669
2023/06/06 23:02:00.463, True, 3.370, 0.134966
2023/06/06 23:02:00.967, True, 3.316, 0.134432
2023/06/06 23:02:01.471, True, 3.316, 0.134356
2023/06/06 23:02:01.976, True, 3.316, 0.136950
2023/06/06 23:02:02.471, True, 3.369, 0.134127
2023/06/06 23:02:02.975, True, 3.317, 0.133440
2023/06/06 23:02:03.479, True, 3.315, 0.135653
2023/06/06 23:02:03.975, True, 3.371, 0.135271
2023/06/06 23:02:04.480, True, 2.983, 0.136797
2023/06/06 23:02:04.983, True, 3.648, 0.136263
2023/06/06 23:02:05.487, True, 3.318, 0.135119
2023/06/06 23:02:05.983, True, 3.031, 0.136950
2023/06/06 23:02:06.487, True, 3.316, 0.134585
2023/06/06 23:02:06.991, True, 3.324, 0.135195
2023/06/06 23:02:07.487, True, 3.362, 0.136492
2023/06/06 23:02:07.991, True, 3.316, 0.134813
2023/06/06 23:02:08.495, True, 3.317, 0.133593
2023/06/06 23:02:08.991, True, 3.368, 0.133593
2023/06/06 23:02:09.495, True, 2.984, 0.135500
2023/06/06 23:02:09.999, True, 3.648, 0.135805
2023/06/06 23:02:10.495, True, 3.369, 0.135042
2023/06/06 23:02:10.999, True, 3.316, 0.134356
2023/06/06 23:02:11.503, True, 3.316, 0.134813
2023/06/06 23:02:11.999, True, 3.375, 0.135882
2023/06/06 23:02:12.503, True, 3.311, 0.133364
2023/06/06 23:02:13.007, True, 2.985, 0.135958
2023/06/06 23:02:13.511, True, 3.318, 0.134203
2023/06/06 23:02:14.007, True, 3.704, 0.133745
2023/06/06 23:02:14.511, True, 3.319, 0.133669
2023/06/06 23:02:15.007, True, 3.029, 0.135119
2023/06/06 23:02:15.511, True, 3.316, 0.135348
2023/06/06 23:02:16.015, True, 3.317, 0.134127
2023/06/06 23:02:16.511, True, 3.032, 0.133593
2023/06/06 23:02:17.015, True, 3.317, 0.133440
2023/06/06 23:02:17.519, True, 3.316, 0.136110
2023/06/06 23:02:18.023, True, 3.316, 0.134356
2023/06/06 23:02:18.519, True, 3.370, 0.135958
2023/06/06 23:02:19.023, True, 3.316, 0.137026
2023/06/06 23:02:19.527, True, 3.315, 0.132296
2023/06/06 23:02:20.023, True, 3.033, 0.133898
2023/06/06 23:02:20.527, True, 3.649, 0.135042
2023/06/06 23:02:21.031, True, 2.984, 0.134890
2023/06/06 23:02:21.527, True, 3.369, 0.134661
2023/06/06 23:02:22.031, True, 3.316, 0.135271
2023/06/06 23:02:22.535, True, 3.316, 0.135882
2023/06/06 23:02:23.031, True, 3.370, 0.132753
2023/06/06 23:02:23.535, True, 3.316, 0.134890
2023/06/06 23:02:24.039, True, 3.317, 0.136187
2023/06/06 23:02:24.535, True, 3.369, 0.134279
2023/06/06 23:02:25.039, True, 3.315, 0.134813
2023/06/06 23:02:25.543, True, 3.317, 0.135042
2023/06/06 23:02:26.039, True, 3.369, 0.133059
2023/06/06 23:02:26.543, True, 2.985, 0.134813
2023/06/06 23:02:27.047, True, 3.317, 0.134508
2023/06/06 23:02:27.543, True, 3.368, 0.133898
2023/06/06 23:02:28.047, True, 3.320, 0.135500
2023/06/06 23:02:28.551, True, 2.980, 0.136263
2023/06/06 23:02:29.055, True, 3.316, 0.133288
2023/06/06 23:02:29.551, True, 3.706, 0.133669
2023/06/06 23:02:30.055, True, 3.318, 0.137179
2023/06/06 23:02:30.559, True, 3.313, 0.133898
2023/06/06 23:02:31.055, True, 3.375, 0.133135
2023/06/06 23:02:31.559, True, 3.311, 0.133364
2023/06/06 23:02:32.063, True, 2.990, 0.132296
2023/06/06 23:02:32.559, True, 3.364, 0.132448
2023/06/06 23:02:33.063, True, 2.984, 0.133669
2023/06/06 23:02:33.567, True, 3.316, 0.134356
2023/06/06 23:02:34.071, True, 3.321, 0.135042
2023/06/06 23:02:34.567, True, 3.365, 0.136034
2023/06/06 23:02:35.070, True, 3.316, 0.136492
2023/06/06 23:02:35.575, True, 3.317, 0.133822
2023/06/06 23:02:36.071, True, 3.372, 0.134051
2023/06/06 23:02:36.575, True, 3.316, 0.132601
2023/06/06 23:02:37.079, True, 3.314, 0.134432
2023/06/06 23:02:37.575, True, 3.369, 0.134432
2023/06/06 23:02:38.079, True, 3.316, 0.133745
2023/06/06 23:02:38.583, True, 3.316, 0.133135
2023/06/06 23:02:39.079, True, 3.369, 0.133211
2023/06/06 23:02:39.583, True, 3.318, 0.135042
2023/06/06 23:02:40.079, True, 3.031, 0.132830
2023/06/06 23:02:40.583, True, 3.316, 0.133974
2023/06/06 23:02:41.086, True, 3.316, 0.135576
2023/06/06 23:02:41.583, True, 3.370, 0.132601
2023/06/06 23:02:42.086, True, 3.316, 0.135271
2023/06/06 23:02:42.591, True, 3.316, 0.136873
2023/06/06 23:02:43.087, True, 3.370, 0.131533
2023/06/06 23:02:43.591, True, 3.317, 0.132601
2023/06/06 23:02:44.095, True, 3.316, 0.134203
2023/06/06 23:02:44.591, True, 3.368, 0.132525
2023/06/06 23:02:45.095, True, 3.317, 0.134890
2023/06/06 23:02:45.599, True, 3.316, 0.131838
2023/06/06 23:02:46.094, True, 3.032, 0.135348
2023/06/06 23:02:46.599, True, 3.320, 0.132372
2023/06/06 23:02:47.103, True, 3.312, 0.132830
2023/06/06 23:02:47.599, True, 3.032, 0.133974
2023/06/06 23:02:48.103, True, 3.320, 0.134585
2023/06/06 23:02:48.607, True, 3.312, 0.134508
2023/06/06 23:02:49.111, True, 3.317, 0.133516
2023/06/06 23:02:49.607, True, 3.372, 0.134356
2023/06/06 23:02:50.111, True, 2.987, 0.133516
2023/06/06 23:02:50.615, True, 3.311, 0.134356
2023/06/06 23:02:51.111, True, 3.369, 0.132982
2023/06/06 23:02:51.615, True, 3.322, 0.131075
2023/06/06 23:02:52.119, True, 2.985, 0.133822
2023/06/06 23:02:52.615, True, 3.366, 0.133440
2023/06/06 23:02:53.119, True, 3.314, 0.133135
2023/06/06 23:02:53.623, True, 3.317, 0.136339
2023/06/06 23:02:54.119, True, 3.368, 0.132830
2023/06/06 23:02:54.623, True, 2.985, 0.133211
2023/06/06 23:02:55.127, True, 3.318, 0.132601
2023/06/06 23:02:55.631, True, 3.312, 0.133135
2023/06/06 23:02:56.127, True, 3.370, 0.132525
2023/06/06 23:02:56.631, True, 3.316, 0.133211
2023/06/06 23:02:57.127, True, 3.369, 0.134279
2023/06/06 23:02:57.631, True, 3.319, 0.133059
2023/06/06 23:02:58.135, True, 3.313, 0.134966
2023/06/06 23:02:58.631, True, 3.370, 0.131914
2023/06/06 23:02:59.135, True, 3.320, 0.132143
2023/06/06 23:02:59.639, True, 3.313, 0.133669
2023/06/06 23:03:00.135, True, 3.369, 0.131228
2023/06/06 23:03:00.639, True, 3.320, 0.131838
2023/06/06 23:03:01.142, True, 3.312, 0.133364
2023/06/06 23:03:01.639, True, 3.370, 0.131991
2023/06/06 23:03:02.143, True, 3.316, 0.132982
2023/06/06 23:03:02.647, True, 3.317, 0.133288
2023/06/06 23:03:03.143, True, 3.373, 0.133059
2023/06/06 23:03:03.647, True, 3.312, 0.133669
2023/06/06 23:03:04.151, True, 3.316, 0.132677
2023/06/06 23:03:04.647, True, 3.369, 0.133822
2023/06/06 23:03:05.151, True, 3.648, 0.134813
2023/06/06 23:03:05.655, True, 3.321, 0.131838
2023/06/06 23:03:06.151, True, 3.027, 0.132601
2023/06/06 23:03:06.655, True, 3.318, 0.134585
2023/06/06 23:03:07.151, True, 3.367, 0.134051
2023/06/06 23:03:07.655, True, 3.319, 0.133822
2023/06/06 23:03:08.159, True, 3.314, 0.132448
2023/06/06 23:03:08.655, True, 3.370, 0.134737
2023/06/06 23:03:09.159, True, 3.317, 0.133974
2023/06/06 23:03:09.663, True, 3.316, 0.134966
2023/06/06 23:03:10.159, True, 3.374, 0.132753
2023/06/06 23:03:10.663, True, 3.311, 0.134737
2023/06/06 23:03:11.167, True, 3.316, 0.133135
2023/06/06 23:03:11.663, True, 3.369, 0.133059
2023/06/06 23:03:12.167, True, 3.315, 0.132830
2023/06/06 23:03:12.671, True, 3.318, 0.133440
2023/06/06 23:03:13.167, True, 3.368, 0.133898
2023/06/06 23:03:13.671, True, 3.316, 0.134432
2023/06/06 23:03:14.175, True, 2.985, 0.134813
2023/06/06 23:03:14.671, True, 3.375, 0.135653
2023/06/06 23:03:15.175, True, 3.310, 0.132296
2023/06/06 23:03:15.679, True, 3.316, 0.134737
2023/06/06 23:03:16.175, True, 3.369, 0.134890
2023/06/06 23:03:16.679, True, 3.315, 0.132219
2023/06/06 23:03:17.183, True, 3.317, 0.135805
2023/06/06 23:03:17.679, True, 3.370, 0.133288
2023/06/06 23:03:18.183, True, 3.316, 0.134432
2023/06/06 23:03:18.687, True, 3.321, 0.135882
2023/06/06 23:03:19.183, True, 3.028, 0.134203
2023/06/06 23:03:19.687, True, 3.647, 0.133974
2023/06/06 23:03:20.191, True, 2.985, 0.133669
2023/06/06 23:03:20.687, True, 3.368, 0.134203
2023/06/06 23:03:21.191, True, 3.320, 0.134203
2023/06/06 23:03:21.687, True, 3.365, 0.131685
2023/06/06 23:03:22.191, True, 3.316, 0.133898
2023/06/06 23:03:22.695, True, 2.984, 0.135271
2023/06/06 23:03:23.191, True, 3.371, 0.133974
2023/06/06 23:03:23.695, True, 3.315, 0.134203
2023/06/06 23:03:24.199, True, 3.316, 0.132677
2023/06/06 23:03:24.694, True, 3.369, 0.133745
2023/06/06 23:03:25.199, True, 3.317, 0.133516
2023/06/06 23:03:25.703, True, 3.316, 0.134127
2023/06/06 23:03:26.199, True, 3.369, 0.131685
2023/06/06 23:03:26.703, True, 3.648, 0.132067
2023/06/06 23:03:27.207, True, 3.316, 0.134890
2023/06/06 23:03:27.703, True, 3.369, 0.134203
2023/06/06 23:03:28.207, True, 3.316, 0.134508
2023/06/06 23:03:28.711, True, 3.320, 0.134737
2023/06/06 23:03:29.207, True, 3.029, 0.133669
2023/06/06 23:03:29.711, True, 3.317, 0.133364
2023/06/06 23:03:30.207, True, 3.707, 0.133898
2023/06/06 23:03:30.711, True, 3.315, 0.133135
2023/06/06 23:03:31.215, True, 3.316, 0.134051
2023/06/06 23:03:31.719, True, 2.987, 0.132525
2023/06/06 23:03:32.215, True, 3.369, 0.132906
2023/06/06 23:03:32.719, True, 3.313, 0.134661
2023/06/06 23:03:33.215, True, 3.370, 0.132753
2023/06/06 23:03:33.719, True, 3.316, 0.134127
2023/06/06 23:03:34.222, True, 3.321, 0.130999
2023/06/06 23:03:34.719, True, 3.028, 0.135119
2023/06/06 23:03:35.223, True, 3.317, 0.132143
2023/06/06 23:03:35.727, True, 3.316, 0.130999
2023/06/06 23:03:36.223, True, 3.369, 0.134127
2023/06/06 23:03:36.727, True, 3.316, 0.134966
2023/06/06 23:03:37.231, True, 3.316, 0.133822
2023/06/06 23:03:37.735, True, 3.321, 0.133364
2023/06/06 23:03:38.231, True, 3.365, 0.133135
2023/06/06 23:03:38.735, True, 3.320, 0.132601
2023/06/06 23:03:39.239, True, 3.312, 0.131762
2023/06/06 23:03:39.735, True, 3.370, 0.133974
2023/06/06 23:03:40.239, True, 3.316, 0.133059
2023/06/06 23:03:40.743, True, 2.984, 0.131914
2023/06/06 23:03:41.239, True, 3.369, 0.132677
2023/06/06 23:03:41.743, True, 3.320, 0.133364
2023/06/06 23:03:42.247, True, 3.313, 0.135500
2023/06/06 23:03:42.743, True, 3.371, 0.134203
2023/06/06 23:03:43.247, True, 2.987, 0.132601
2023/06/06 23:03:43.751, True, 3.311, 0.132143
2023/06/06 23:03:44.247, True, 3.374, 0.133593
2023/06/06 23:03:44.751, True, 3.311, 0.131991
2023/06/06 23:03:45.255, True, 2.984, 0.133669
2023/06/06 23:03:45.751, True, 3.374, 0.130159
2023/06/06 23:03:46.255, True, 3.645, 0.131762
2023/06/06 23:03:46.759, True, 3.315, 0.133288
2023/06/06 23:03:47.255, True, 3.032, 0.135424
2023/06/06 23:03:47.759, True, 3.320, 0.132067
2023/06/06 23:03:48.255, True, 3.369, 0.132525
2023/06/06 23:03:48.759, True, 3.317, 0.132982
2023/06/06 23:03:49.263, True, 3.312, 0.135576
2023/06/06 23:03:49.759, True, 3.369, 0.131380
2023/06/06 23:03:50.263, True, 3.316, 0.133669
2023/06/06 23:03:50.767, True, 3.316, 0.133440
2023/06/06 23:03:51.270, True, 3.323, 0.132906
2023/06/06 23:03:51.767, True, 3.363, 0.133288
2023/06/06 23:03:52.271, True, 3.316, 0.133516
2023/06/06 23:03:52.775, True, 3.647, 0.134813
2023/06/06 23:03:53.271, True, 3.370, 0.132982
2023/06/06 23:03:53.775, True, 3.316, 0.132525
2023/06/06 23:03:54.279, True, 3.316, 0.133135
2023/06/06 23:03:54.775, True, 3.032, 0.134661
2023/06/06 23:03:55.279, True, 3.317, 0.134508
2023/06/06 23:03:55.783, True, 3.648, 0.132143
2023/06/06 23:03:56.279, True, 3.369, 0.132753
2023/06/06 23:03:56.783, True, 2.985, 0.131533
2023/06/06 23:03:57.287, True, 3.316, 0.131151
2023/06/06 23:03:57.783, True, 3.033, 0.131304
2023/06/06 23:03:58.287, True, 3.316, 0.133822
2023/06/06 23:03:58.791, True, 3.316, 0.133440
2023/06/06 23:03:59.287, True, 3.371, 0.133516
2023/06/06 23:03:59.791, True, 3.315, 0.135576
2023/06/06 23:04:00.295, True, 3.317, 0.134661
2023/06/06 23:04:00.791, True, 3.369, 0.134356
2023/06/06 23:04:01.295, True, 3.316, 0.133669
2023/06/06 23:04:01.799, True, 3.319, 0.131456
2023/06/06 23:04:02.303, True, 3.314, 0.133593
2023/06/06 23:04:02.799, True, 3.369, 0.132906
2023/06/06 23:04:03.303, True, 3.315, 0.131456
2023/06/06 23:04:03.799, True, 3.033, 0.132677
2023/06/06 23:04:04.303, True, 3.315, 0.133974
2023/06/06 23:04:04.807, True, 3.317, 0.135271
2023/06/06 23:04:05.311, True, 3.315, 0.132143
2023/06/06 23:04:05.807, True, 3.033, 0.133135
2023/06/06 23:04:06.311, True, 3.316, 0.130922
2023/06/06 23:04:06.815, True, 3.318, 0.133135
2023/06/06 23:04:07.311, True, 3.367, 0.132982
2023/06/06 23:04:07.815, True, 3.316, 0.134356
2023/06/06 23:04:08.319, True, 3.316, 0.134432
2023/06/06 23:04:08.823, True, 3.318, 0.132830
2023/06/06 23:04:09.319, True, 3.033, 0.132677
2023/06/06 23:04:09.823, True, 3.315, 0.133211
2023/06/06 23:04:10.327, True, 2.983, 0.130388
2023/06/06 23:04:10.823, True, 3.370, 0.133211
2023/06/06 23:04:11.326, True, 3.316, 0.132067
2023/06/06 23:04:11.831, True, 3.316, 0.133516
2023/06/06 23:04:12.327, True, 3.033, 0.133516
2023/06/06 23:04:12.830, True, 3.321, 0.134432
2023/06/06 23:04:13.334, True, 2.979, 0.134432
2023/06/06 23:04:13.830, True, 3.369, 0.134890
2023/06/06 23:04:14.334, True, 3.316, 0.133288